User: anonymous   Login
Location: Laverne
(36.7100°N, 99.8930°W)
Time: 12:16:56
(UTC-05:00)
Language:

Iridium 32 - Orbit

View from above orbital plane
View from above orbital plane
View from above satellite
View from above satellite

Ground track
Ground track

The orbit data is extracted from the following two-line orbital elements,

1 24945U 97051B   17174.84853638 +.00000131 +00000-0 +39619-4 0  9998
2 24945 086.3965 284.3017 0002349 092.8955 267.2510 14.34215722035376
Epoch (UTC): 23 June 2017 20:21:53
Eccentricity: 0.0002349
inclination: 86.3965°
perigee height: 776 km
apogee height: 779 km
right ascension of ascending node: 284.3017°
argument of perigee: 92.8955°
revolutions per day: 14.34215722
mean anomaly at epoch: 267.2510°
orbit number at epoch: 3537

The dashed part of the orbit path shows where the satellite is in the earth's shadow,  

DLR